SL-16 DEB, 22290

Orbit data source: Space-Track

SL-16 DEB, 22290 is space debris in LEO originally from a launch on Fri, 25 Dec 1992 UTC launched from the Tyuratam Missile And Space Complex (TTMTR). Debris objects in space refer to the collection of defunct objects orbiting the Earth. Examples of debris include non-operational satellites, rocket bodies, and fragments generated from explosions, collisions, or faulty payload assembly.

Loading next visibility...
Identifier
22290, 1992-093E
Orbit
LEO
Country
Flag of CISCIS
Related business
Manufacturer
Yuzhnoe
Mission
Spacecraft
Bus & Motor
SEP MOTOR COVER, Unknown motor
Mass
~0 kg wet, ~1 kg dry
Launch date (UTC)
1992-12-25 (33 years ago)
Launch vehicle
Unknown
Launch site
Tyuratam Missile And Space Complex (TTMTR)
Object type
Payload
Rocket body
Debris
Shape & HBR
Unknown
Radar Cross Section
Small (<0.1 m²)

Expand to show TLE details & history
Last TLE update: 22 hours ago

TLE from 22 hours ago
0 SL-16 DEB
1 22290U 92093E   25306.30736260  .00000157  00000-0  18178-3 0  9992
2 22290  71.0471 145.4638 0196420 239.3666 296.4259 13.75314042647313
Epoch: 2025-11-02T07:22Z
TLE epoch observation values (Epoch: 2025-11-02T07:22:36.128Z)
Latitude
5.83587°
Longitude
170.98739°
Altitude
920.319 km
Speed
7.423 km/s
True Right ascension
21h 33m 51s
True Declination
5° 48' 07"
Sunlit
Object was in daylight at epoch
Visualization orbit readout
Latitude
Unknown
Longitude
Unknown
Altitude
Unknown
Speed
Unknown
Apparent Right ascension
Unknown
Apparent Declination
Unknown
Sunlit
N/A
Visualization observer readout
Local Sidereal Time
01:38:53
Azimuth
Unknown
Elevation
Unknown
Doppler factor
Unknown
Orbital elements
Apogee altitude
1,123.012 km
Perigee altitude
834.013 km
Semi-major axis
7,356.65 km
Eccentricity
0.01964
Inclination
71.0471°
RAAN
145.4638°
Arg. of periapsis
239.3666°
True anomaly
294.38845°
Mean anomaly
296.4259°
Eccentric anomaly
295.40936°
Mean motion
3.43972 °/min
Orbital period
104.66 mins
BSTAR
0.00018178
Loading maneuver chart data...
Computing Atmospheric mass density...
Loading historical data...
Loading historical data...
Loading historical data...
Loading historical data...
Loading historical data...
Loading historical data...
Loading historical data...

Documentation

Showing up to 5 results
|